| time (UTC) | temp F | wind direction | speed MPH | gust MPH | rain 1hr in | rain 24hr in | rain mn in | humidity % | barometer mb |
| 20260510081309 | 61 | 60 | 6.0 | 15.0 | 0.00 | 0.00 | 0.00 | 54 | 13.9 |
| 20260510075309 | 60 | 331 | 4.0 | 11.0 | 0.00 | 0.00 | 0.00 | 57 | 13.8 |
| 20260510074309 | 59 | 65 | 1.0 | 11.0 | 0.00 | 0.00 | 0.00 | 59 | 13.7 |
| 20260510072309 | 56 | 49 | 6.0 | 15.0 | 0.00 | 0.00 | 0.00 | 58 | 13.7 |
| 20260510071309 | 55 | 344 | 1.0 | 10.0 | 0.00 | 0.00 | 0.00 | 62 | 13.7 |
| 20260510064309 | 53 | 60 | 2.0 | 10.0 | 0.00 | 0.00 | 0.00 | 68 | 13.8 |
| 20260510063309 | 53 | 97 | 2.0 | 11.0 | 0.00 | 0.00 | 0.00 | 71 | 13.9 |
| 20260510062309 | 52 | 311 | 0.0 | 6.0 | 0.00 | 0.00 | 0.00 | 75 | 13.8 |
| 20260510061309 | 51 | 9 | 0.0 | 4.0 | 0.00 | 0.00 | 0.00 | 78 | 13.8 |
| 20260510055309 | 50 | 355 | 0.0 | 0.0 | 0.00 | 0.00 | 0.00 | 80 | 13.8 |
| 20260510054310 | 50 | 17 | 0.0 | 1.0 | 0.00 | 0.00 | 0.00 | 81 | 13.8 |
| 20260510053309 | 49 | 347 | 0.0 | 1.0 | 0.00 | 0.00 | 0.00 | 82 | 13.6 |
| 20260510051309 | 49 | 20 | 0.0 | 0.0 | 0.00 | 0.00 | 0.00 | 83 | 13.8 |
| 20260510044309 | 48 | 5 | 0.0 | 1.0 | 0.00 | 0.00 | 0.00 | 82 | 13.7 |
| 20260510042309 | 48 | 12 | 0.0 | 0.0 | 0.00 | 0.00 | 0.00 | 82 | 13.9 |
| 20260510041309 | 48 | 12 | 0.0 | 0.0 | 0.00 | 0.00 | 0.00 | 82 | 13.8 |
| 20260510035309 | 48 | 36 | 0.0 | 1.0 | 0.00 | 0.00 | 0.00 | 82 | 13.7 |
| 20260510034311 | 48 | 29 | 0.0 | 0.0 | 0.00 | 0.00 | 0.00 | 82 | 13.7 |
| 20260510033310 | 48 | 38 | 0.0 | 2.0 | 0.00 | 0.00 | 0.00 | 82 | 13.8 |
| 20260510032310 | 48 | 45 | 0.0 | 2.0 | 0.00 | 0.00 | 0.00 | 82 | 13.6 |
| 20260510025309 | 48 | 355 | 0.0 | 0.0 | 0.00 | 0.00 | 0.00 | 80 | 13.7 |
| 20260510024310 | 48 | 360 | 0.0 | 0.0 | 0.00 | 0.00 | 0.00 | 79 | 13.8 |
| 20260510023312 | 48 | 26 | 0.0 | 0.0 | 0.00 | 0.00 | 0.00 | 79 | 13.9 |
| 20260510022309 | 48 | 29 | 0.0 | 1.0 | 0.00 | 0.00 | 0.00 | 79 | 13.8 |
| 20260510021309 | 48 | 9 | 0.0 | 0.0 | 0.00 | 0.00 | 0.00 | 79 | 13.9 |
| 20260510015309 | 49 | 5 | 0.0 | 0.0 | 0.00 | 0.00 | 0.00 | 78 | 14.0 |
| 20260510014309 | 49 | 355 | 0.0 | 1.0 | 0.00 | 0.00 | 0.00 | 78 | 14.0 |
| 20260510013311 | 49 | 40 | 0.0 | 0.0 | 0.00 | 0.00 | 0.00 | 78 | 14.1 |
| 20260510012310 | 49 | 14 | 0.0 | 0.0 | 0.00 | 0.00 | 0.00 | 77 | 14.1 |
| 20260510005309 | 50 | 348 | 0.0 | 0.0 | 0.00 | 0.00 | 0.00 | 75 | 14.2 |
| 20260510004310 | 50 | 360 | 0.0 | 0.0 | 0.00 | 0.00 | 0.00 | 75 | 14.3 |
| 20260510003310 | 50 | 17 | 0.0 | 0.0 | 0.00 | 0.00 | 0.00 | 74 | 14.2 |
| 20260510002309 | 51 | 22 | 0.0 | 1.0 | 0.00 | 0.00 | 0.00 | 74 | 14.4 |
| 20260509235309 | 51 | 355 | 0.0 | 0.0 | 0.00 | 0.00 | 0.00 | 74 | 14.5 |
| 20260509234309 | 51 | 28 | 0.0 | 1.0 | 0.00 | 0.00 | 0.00 | 73 | 14.6 |
| 20260509233309 | 52 | 20 | 0.0 | 1.0 | 0.00 | 0.00 | 0.00 | 73 | 14.6 |
| 20260509231309 | 52 | 46 | 0.0 | 0.0 | 0.00 | 0.00 | 0.00 | 71 | 14.8 |
| 20260509225309 | 53 | 5 | 0.0 | 0.0 | 0.00 | 0.00 | 0.00 | 70 | 14.7 |
| 20260509224309 | 53 | 11 | 0.0 | 2.0 | 0.00 | 0.00 | 0.00 | 70 | 14.8 |
| 20260509223309 | 53 | 35 | 0.0 | 1.0 | 0.00 | 0.00 | 0.00 | 70 | 14.7 |
| 20260509221309 | 54 | 49 | 0.0 | 2.0 | 0.00 | 0.00 | 0.00 | 69 | 14.7 |
| 20260509220309 | 54 | 360 | 0.0 | 0.0 | 0.00 | 0.00 | 0.00 | 69 | 14.7 |
| 20260509215310 | 54 | 51 | 0.0 | 1.0 | 0.00 | 0.00 | 0.00 | 69 | 15.0 |
| 20260509214309 | 54 | 22 | 0.0 | 1.0 | 0.00 | 0.00 | 0.00 | 69 | 15.0 |
| 20260509213314 | 54 | 45 | 0.0 | 2.0 | 0.00 | 0.00 | 0.00 | 68 | 15.2 |
| 20260509212309 | 55 | 355 | 0.0 | 0.0 | 0.00 | 0.00 | 0.00 | 66 | 15.1 |
| 20260509211309 | 55 | 5 | 0.0 | 1.0 | 0.00 | 0.00 | 0.00 | 65 | 15.0 |
| 20260509210309 | 55 | 355 | 0.0 | 1.0 | 0.00 | 0.00 | 0.00 | 65 | 15.1 |
| 20260509205309 | 56 | 40 | 0.0 | 0.0 | 0.00 | 0.00 | 0.00 | 64 | 14.9 |
| 20260509204309 | 56 | 348 | 0.0 | 0.0 | 0.00 | 0.00 | 0.00 | 64 | 14.8 |
| 20260509202310 | 57 | 24 | 0.0 | 2.0 | 0.00 | 0.00 | 0.00 | 63 | 15.1 |
| 20260509201310 | 57 | 355 | 0.0 | 1.0 | 0.00 | 0.00 | 0.00 | 62 | 15.0 |
| 20260509195309 | 58 | 59 | 0.0 | 1.0 | 0.00 | 0.00 | 0.00 | 61 | 15.2 |
| 20260509193309 | 59 | 59 | 0.0 | 2.0 | 0.00 | 0.00 | 0.00 | 59 | 15.1 |
| 20260509192309 | 60 | 11 | 0.0 | 1.0 | 0.00 | 0.00 | 0.00 | 58 | 14.9 |
| 20260509191309 | 60 | 34 | 0.0 | 0.0 | 0.00 | 0.00 | 0.00 | 57 | 15.0 |
| 20260509185309 | 61 | 16 | 0.0 | 4.0 | 0.00 | 0.00 | 0.00 | 54 | 14.8 |
| 20260509184309 | 62 | 349 | 1.0 | 5.0 | 0.00 | 0.00 | 0.00 | 54 | 14.7 |
| 20260509183309 | 62 | 32 | 1.0 | 5.0 | 0.00 | 0.00 | 0.00 | 53 | 14.8 |
| 20260509181310 | 63 | 73 | 1.0 | 3.0 | 0.00 | 0.00 | 0.00 | 53 | 14.7 |
| 20260509175309 | 64 | 107 | 0.0 | 7.0 | 0.00 | 0.00 | 0.00 | 51 | 14.8 |
| 20260509174309 | 65 | 24 | 1.0 | 8.0 | 0.00 | 0.00 | 0.00 | 50 | 14.9 |
| 20260509173310 | 65 | 44 | 1.0 | 5.0 | 0.00 | 0.00 | 0.00 | 50 | 14.9 |
| 20260509171309 | 66 | 17 | 1.0 | 6.0 | 0.00 | 0.00 | 0.00 | 49 | 14.8 |
| 20260509165310 | 69 | 36 | 0.0 | 10.0 | 0.00 | 0.00 | 0.00 | 45 | 14.7 |
| 20260509164309 | 69 | 339 | 1.0 | 6.0 | 0.00 | 0.00 | 0.00 | 41 | 14.7 |
| 20260509163309 | 69 | 22 | 1.0 | 6.0 | 0.00 | 0.00 | 0.00 | 41 | 14.8 |
| 20260509162309 | 69 | 11 | 1.0 | 6.0 | 0.00 | 0.00 | 0.00 | 41 | 14.7 |
| 20260509155309 | 69 | 86 | 0.0 | 2.0 | 0.00 | 0.00 | 0.00 | 43 | 14.4 |
| 20260509154309 | 68 | 304 | 0.0 | 5.0 | 0.00 | 0.00 | 0.00 | 43 | 14.5 |
| 20260509153309 | 67 | 337 | 0.0 | 2.0 | 0.00 | 0.00 | 0.00 | 44 | 14.7 |
| 20260509152310 | 68 | 289 | 0.0 | 1.0 | 0.00 | 0.00 | 0.00 | 43 | 14.8 |
| 20260509151310 | 68 | 316 | 0.0 | 2.0 | 0.00 | 0.00 | 0.00 | 44 | 14.9 |
| 20260509144309 | 67 | 330 | 1.0 | 3.0 | 0.00 | 0.00 | 0.00 | 44 | 14.9 |
| 20260509142309 | 67 | 80 | 1.0 | 7.0 | 0.00 | 0.00 | 0.00 | 42 | 15.3 |
| 20260509135309 | 68 | 175 | 0.0 | 1.0 | 0.00 | 0.00 | 0.00 | 44 | 15.5 |
| 20260509133309 | 65 | 40 | 0.0 | 3.0 | 0.00 | 0.00 | 0.00 | 47 | 15.6 |
| 20260509132309 | 66 | 11 | 0.0 | 1.0 | 0.00 | 0.00 | 0.00 | 44 | 15.8 |
| 20260509125310 | 67 | 161 | 0.0 | 8.0 | 0.00 | 0.00 | 0.00 | 42 | 16.0 |
| 20260509124309 | 68 | 5 | 2.0 | 10.0 | 0.00 | 0.00 | 0.00 | 42 | 16.1 |
| 20260509123309 | 68 | 124 | 1.0 | 5.0 | 0.00 | 0.00 | 0.00 | 46 | 16.3 |
| 20260509122313 | 67 | 154 | 2.0 | 10.0 | 0.00 | 0.00 | 0.00 | 45 | 16.3 |
| 20260509121309 | 67 | 112 | 0.0 | 3.0 | 0.00 | 0.00 | 0.00 | 45 | 16.4 |
| 20260509115309 | 67 | 30 | 0.0 | 5.0 | 0.00 | 0.00 | 0.00 | 44 | 16.5 |
| 20260509114309 | 68 | 111 | 0.0 | 7.0 | 0.00 | 0.00 | 0.00 | 43 | 16.5 |
| 20260509112309 | 70 | 171 | 0.0 | 2.0 | 0.00 | 0.00 | 0.00 | 44 | 16.8 |
| 20260509111309 | 67 | 244 | 1.0 | 4.0 | 0.00 | 0.00 | 0.00 | 50 | 16.9 |
| 20260509105309 | 65 | 326 | 0.0 | 1.0 | 0.00 | 0.00 | 0.00 | 48 | 17.1 |
| 20260509104309 | 65 | 74 | 0.0 | 5.0 | 0.00 | 0.00 | 0.00 | 48 | 17.1 |
| 20260509103309 | 66 | 111 | 1.0 | 8.0 | 0.00 | 0.00 | 0.00 | 46 | 17.1 |
| 20260509102309 | 66 | 88 | 0.0 | 8.0 | 0.00 | 0.00 | 0.00 | 47 | 17.1 |
| 20260509101309 | 65 | 124 | 0.0 | 4.0 | 0.00 | 0.00 | 0.00 | 50 | 17.1 |
| 20260509095309 | 67 | 138 | 1.0 | 5.0 | 0.00 | 0.00 | 0.00 | 48 | 17.1 |
| 20260509093309 | 68 | 218 | 0.0 | 3.0 | 0.00 | 0.00 | 0.00 | 49 | 17.3 |
| 20260509092309 | 69 | 109 | 0.0 | 6.0 | 0.00 | 0.00 | 0.00 | 49 | 17.5 |
| 20260509091310 | 69 | 121 | 1.0 | 7.0 | 0.00 | 0.00 | 0.00 | 50 | 17.5 |
| 20260509085309 | 68 | 76 | 2.0 | 9.0 | 0.00 | 0.00 | 0.00 | 51 | 17.5 |
| 20260509083310 | 67 | 160 | 3.0 | 9.0 | 0.00 | 0.00 | 0.00 | 53 | 17.4 |
| 20260509082310 | 66 | 105 | 2.0 | 10.0 | 0.00 | 0.00 | 0.00 | 54 | 17.4 |